User: anonymous   Login
Location: Cussy
(47.0410°N, 4.6412°E)
Time: 08:28:15
(UTC+00:00)
Language:

SSES-1 - Orbit

View from above orbital plane
View from above orbital plane
View from above satellite
View from above satellite

Ground track
Ground track

The orbit data is extracted from the following two-line orbital elements,

1 44704U 19072B   21166.89634308  .00002171  00000-0  88791-4 0  9993
2 44704  97.4443 248.4736 0015450  11.3127  78.9767 15.25345796 89981
Epoch (UTC): 15 June 2021 21:30:44
Eccentricity: 0.0015450
inclination: 97.4443°
perigee height: 479 km
apogee height: 500 km
right ascension of ascending node: 248.4736°
argument of perigee: 11.3127°
revolutions per day: 15.25345796
mean anomaly at epoch: 78.9767°
orbit number at epoch: 8998

The dashed part of the orbit path shows where the satellite is in the earth's shadow,  

DLR